Location: Newark
(48.1500°N, 2.9667°W)
Time: 02:34:14
(UTC+00:00)

Courier 1B - Pass Details

Date: 25 January 2020
Orbit: 962 x 1209 km, 28.3° (Epoch: 25 February)

Event Time Altitude Azimuth Distance (km) Brightness Sun altitude
Exits shadow 05:18:23 13° 206° (SSW) 2,827 9.7 -24.9°
Maximum altitude 05:21:13 16° 182° (S) 2,653 9.7 -24.5°
Drops below altitude 10° 05:25:34 10° 147° (SSE) 3,115 10.6 -23.7°
Sets 05:29:44 0° 128° (SE) 4,099 11.6 -23.1°
